DAL310 KATL-KEWR

Flight info

Callsign DAL310
Flight time 1h 43m
Altitude 37000
Route PLMMR3 BURGG Q22 UMBRE DCT QUART PHLBO4
Aircraft A310/H-SDFGHIM1RTUWXY/LB1

Departure

Time 2026-05-07 00:01
Airport Hartsfield Jackson Atlanta International Airport (KATL)

Arrival

Time 2026-05-07 01:45
Airport Newark Liberty International Airport (KEWR)
Time Latitude Longitude Altitude Speed Heading
2026-05-06 23:44 33.63943 -84.43207 1012 ft 0 kts 270°
2026-05-06 23:51 33.63943 -84.43193 1012 ft 3 kts 270°
2026-05-06 23:52 33.63943 -84.43170 1012 ft 3 kts 270°
2026-05-06 23:52 33.63949 -84.43148 1012 ft 3 kts 204°
2026-05-06 23:52 33.63956 -84.43144 1012 ft 0 kts 180°
2026-05-06 23:53 33.63954 -84.43144 1012 ft 1 kts 181°
2026-05-06 23:53 33.63951 -84.43144 1012 ft 0 kts 181°
2026-05-06 23:54 33.63940 -84.43145 1012 ft 3 kts 181°
2026-05-06 23:54 33.63912 -84.43144 1012 ft 5 kts 179°
2026-05-06 23:55 33.63868 -84.43143 1012 ft 8 kts 179°
2026-05-06 23:55 33.63813 -84.43128 1012 ft 9 kts 173°
2026-05-06 23:55 33.63744 -84.43129 1012 ft 11 kts 182°
2026-05-06 23:55 33.63682 -84.43092 1012 ft 11 kts 127°
2026-05-06 23:56 33.63662 -84.43009 1012 ft 11 kts 90°
2026-05-06 23:56 33.63662 -84.42909 1012 ft 13 kts 89°
2026-05-06 23:56 33.63664 -84.42787 1012 ft 15 kts 91°
2026-05-06 23:56 33.63656 -84.42704 1013 ft 16 kts 93°
2026-05-06 23:57 33.63654 -84.42557 999 ft 18 kts 89°
2026-05-06 23:57 33.63655 -84.42402 1013 ft 20 kts 89°
2026-05-06 23:57 33.63655 -84.42231 1013 ft 21 kts 96°
2026-05-06 23:57 33.63591 -84.42070 1013 ft 22 kts 115°
2026-05-06 23:58 33.63582 -84.41883 1012 ft 23 kts 90°
2026-05-06 23:58 33.63581 -84.41684 1012 ft 25 kts 90°
2026-05-06 23:58 33.63581 -84.41467 1011 ft 27 kts 90°
2026-05-06 23:58 33.63581 -84.41236 1012 ft 28 kts 90°
2026-05-06 23:59 33.63581 -84.41054 1012 ft 14 kts 90°
2026-05-06 23:59 33.63575 -84.40932 1012 ft 11 kts 113°
2026-05-06 23:59 33.63574 -84.40929 1012 ft 0 kts 116°
2026-05-07 00:00 33.63547 -84.40911 1013 ft 12 kts 173°
2026-05-07 00:00 33.63475 -84.40943 1013 ft 9 kts 245°
2026-05-07 00:00 33.63472 -84.40974 1013 ft 0 kts 268°
2026-05-07 00:01 33.63472 -84.40978 1013 ft 10 kts 269°
2026-05-07 00:01 33.63472 -84.41537 1011 ft 119 kts 270°
2026-05-07 00:01 33.63460 -84.42806 1269 ft 174 kts 269°
2026-05-07 00:01 33.63441 -84.44370 1840 ft 195 kts 265°
2026-05-07 00:02 33.63403 -84.46084 2815 ft 207 kts 264°
2026-05-07 00:02 33.63075 -84.47753 3915 ft 212 kts 247°
2026-05-07 00:02 33.62475 -84.49440 4951 ft 227 kts 244°
2026-05-07 00:02 33.61773 -84.51200 6059 ft 239 kts 244°
2026-05-07 00:03 33.61018 -84.53037 7303 ft 245 kts 244°
2026-05-07 00:03 33.60261 -84.54847 8688 ft 247 kts 244°
2026-05-07 00:03 33.59458 -84.56719 10113 ft 251 kts 241°
2026-05-07 00:03 33.58182 -84.58153 11406 ft 263 kts 210°
2026-05-07 00:04 33.56325 -84.58513 12668 ft 283 kts 184°
2026-05-07 00:04 33.54284 -84.58263 13464 ft 306 kts 180°
2026-05-07 00:04 33.52151 -84.58030 13767 ft 305 kts 182°
2026-05-07 00:04 33.50063 -84.57863 13888 ft 301 kts 179°
2026-05-07 00:05 33.48094 -84.56884 13959 ft 320 kts 150°
2026-05-07 00:05 33.46672 -84.54778 13964 ft 338 kts 120°
2026-05-07 00:05 33.46099 -84.51969 14014 ft 353 kts 100°
2026-05-07 00:05 33.45947 -84.48899 14294 ft 383 kts 94°
2026-05-07 00:06 33.45896 -84.45678 15310 ft 391 kts 93°
2026-05-07 00:06 33.45855 -84.42385 16356 ft 400 kts 92°
2026-05-07 00:06 33.45813 -84.39018 17360 ft 409 kts 92°
2026-05-07 00:06 33.45765 -84.35565 18364 ft 420 kts 89°
2026-05-07 00:07 33.46359 -84.32104 19079 ft 430 kts 65°
2026-05-07 00:07 33.47985 -84.29115 19751 ft 434 kts 41°
2026-05-07 00:07 33.50226 -84.26673 20425 ft 441 kts 34°
2026-05-07 00:07 33.52586 -84.24236 21158 ft 452 kts 36°
2026-05-07 00:08 33.54955 -84.21575 21926 ft 462 kts 38°
2026-05-07 00:08 33.57219 -84.18846 22631 ft 471 kts 39°
2026-05-07 00:08 33.59548 -84.15942 23384 ft 478 kts 39°
2026-05-07 00:08 33.61083 -84.14040 23790 ft 481 kts 39°
2026-05-07 00:09 33.64264 -84.10118 24619 ft 488 kts 39°
2026-05-07 00:09 33.66609 -84.07235 25243 ft 492 kts 39°
2026-05-07 00:09 33.69013 -84.04282 25870 ft 497 kts 39°
2026-05-07 00:09 33.71441 -84.01303 26468 ft 501 kts 39°
2026-05-07 00:10 33.73934 -83.98249 27078 ft 506 kts 39°
2026-05-07 00:10 33.76409 -83.95223 27697 ft 510 kts 39°
2026-05-07 00:10 33.78054 -83.93211 28171 ft 510 kts 39°
2026-05-07 00:10 33.80551 -83.90160 28869 ft 511 kts 39°
2026-05-07 00:11 33.83077 -83.87078 29674 ft 511 kts 39°
2026-05-07 00:11 33.85570 -83.84027 30373 ft 511 kts 39°
2026-05-07 00:11 33.88041 -83.80948 31014 ft 511 kts 39°
2026-05-07 00:11 33.90566 -83.77808 31672 ft 511 kts 39°
2026-05-07 00:12 33.92975 -83.74796 32293 ft 512 kts 39°
2026-05-07 00:12 33.95449 -83.71617 32913 ft 516 kts 42°
2026-05-07 00:12 33.97653 -83.68256 33554 ft 521 kts 47°
2026-05-07 00:12 33.99785 -83.64633 34147 ft 523 kts 48°
2026-05-07 00:13 34.01878 -83.61042 34663 ft 524 kts 47°
2026-05-07 00:13 34.03994 -83.57485 35179 ft 523 kts 46°
2026-05-07 00:13 34.06142 -83.53932 35663 ft 525 kts 46°
2026-05-07 00:13 34.08297 -83.50371 36200 ft 525 kts 46°
2026-05-07 00:14 34.10458 -83.46822 36665 ft 526 kts 45°
2026-05-07 00:14 34.12679 -83.43207 36847 ft 534 kts 45°
2026-05-07 00:14 34.17066 -83.35990 36943 ft 529 kts 45°
2026-05-07 00:15 34.21454 -83.28781 36943 ft 527 kts 45°
2026-05-07 00:15 34.25781 -83.21669 36944 ft 526 kts 45°
2026-05-07 00:16 34.30133 -83.14492 36965 ft 526 kts 45°
2026-05-07 00:16 34.34473 -83.07372 36956 ft 524 kts 45°
2026-05-07 00:17 34.38819 -83.00258 36947 ft 524 kts 45°
2026-05-07 00:17 34.43169 -82.93158 36945 ft 524 kts 45°
2026-05-07 00:18 34.47510 -82.86029 36965 ft 524 kts 45°
2026-05-07 00:18 34.51848 -82.78921 36973 ft 524 kts 45°
2026-05-07 00:19 34.56205 -82.71809 36981 ft 525 kts 45°
2026-05-07 00:19 34.60550 -82.64610 36975 ft 526 kts 45°
2026-05-07 00:20 34.64841 -82.57524 36965 ft 526 kts 46°
2026-05-07 00:20 34.69166 -82.50212 36975 ft 528 kts 46°
2026-05-07 00:21 34.73431 -82.42945 36999 ft 528 kts 46°
2026-05-07 00:21 34.77705 -82.35627 37016 ft 529 kts 46°
2026-05-07 00:22 34.81955 -82.28360 37009 ft 531 kts 46°
2026-05-07 00:22 34.86172 -82.21122 37019 ft 532 kts 46°
2026-05-07 00:23 34.90438 -82.13805 37015 ft 532 kts 46°
2026-05-07 00:23 34.94706 -82.06450 37008 ft 532 kts 46°
2026-05-07 00:24 34.98982 -81.99074 37031 ft 532 kts 46°
2026-05-07 00:24 35.03317 -81.91614 37004 ft 532 kts 44°
2026-05-07 00:25 35.08244 -81.85137 36984 ft 519 kts 33°
2026-05-07 00:25 35.13447 -81.78953 36963 ft 521 kts 34°
2026-05-07 00:26 35.18548 -81.72626 36992 ft 523 kts 35°
2026-05-07 00:26 35.23628 -81.66253 37027 ft 524 kts 34°
2026-05-07 00:27 35.28732 -81.59889 37000 ft 525 kts 35°
2026-05-07 00:27 35.33839 -81.53502 36956 ft 525 kts 35°
2026-05-07 00:28 35.38940 -81.47105 36954 ft 525 kts 35°
2026-05-07 00:28 35.44046 -81.40698 36973 ft 525 kts 35°
2026-05-07 00:29 35.49174 -81.34217 37002 ft 527 kts 34°
2026-05-07 00:30 35.58548 -81.22397 36998 ft 528 kts 35°
2026-05-07 00:30 35.63665 -81.15943 36992 ft 527 kts 35°
2026-05-07 00:31 35.68765 -81.09477 36989 ft 527 kts 35°
2026-05-07 00:31 35.73897 -81.02963 36999 ft 527 kts 35°
2026-05-07 00:32 35.78995 -80.96472 36998 ft 527 kts 35°
2026-05-07 00:32 35.84086 -80.89983 36976 ft 527 kts 35°
2026-05-07 00:33 35.89162 -80.83495 36925 ft 525 kts 35°
2026-05-07 00:33 35.94234 -80.76992 36939 ft 526 kts 34°
2026-05-07 00:34 35.99312 -80.70491 36938 ft 526 kts 35°
2026-05-07 00:34 36.04375 -80.63966 36931 ft 526 kts 34°
2026-05-07 00:35 36.09462 -80.57437 36928 ft 527 kts 35°
2026-05-07 00:35 36.14533 -80.50907 36957 ft 527 kts 34°
2026-05-07 00:36 36.19635 -80.44318 36936 ft 527 kts 34°
2026-05-07 00:36 36.24707 -80.37764 36935 ft 527 kts 34°
2026-05-07 00:37 36.29785 -80.31210 36928 ft 527 kts 34°
2026-05-07 00:37 36.34653 -80.24914 36934 ft 528 kts 35°
2026-05-07 00:38 36.39710 -80.18320 36940 ft 528 kts 34°
2026-05-07 00:38 36.44786 -80.11692 36943 ft 528 kts 35°
2026-05-07 00:39 36.49883 -80.05022 36940 ft 528 kts 35°
2026-05-07 00:39 36.54925 -79.98421 36947 ft 527 kts 35°
2026-05-07 00:40 36.59969 -79.91784 36990 ft 528 kts 35°
2026-05-07 00:40 36.65011 -79.85138 36973 ft 529 kts 35°
2026-05-07 00:41 36.70074 -79.78474 36938 ft 529 kts 35°
2026-05-07 00:41 36.75146 -79.71772 36939 ft 527 kts 35°
2026-05-07 00:42 36.80176 -79.65120 36947 ft 527 kts 35°
2026-05-07 00:42 36.85206 -79.58442 36925 ft 528 kts 35°
2026-05-07 00:43 36.90267 -79.51722 36925 ft 528 kts 35°
2026-05-07 00:43 36.95301 -79.45045 36917 ft 528 kts 35°
2026-05-07 00:44 37.00338 -79.38375 36934 ft 527 kts 35°
2026-05-07 00:44 37.05343 -79.31663 36919 ft 526 kts 35°
2026-05-07 00:45 37.10335 -79.24959 36915 ft 526 kts 35°
2026-05-07 00:45 37.15332 -79.18260 36909 ft 527 kts 36°
2026-05-07 00:46 37.20360 -79.11497 36907 ft 527 kts 35°
2026-05-07 00:46 37.25349 -79.04757 36905 ft 527 kts 35°
2026-05-07 00:47 37.27697 -79.01149 36910 ft 545 kts 50°
2026-05-07 00:47 37.29249 -78.96741 36961 ft 563 kts 71°
2026-05-07 00:47 37.30503 -78.86988 36952 ft 572 kts 91°
2026-05-07 00:48 37.29867 -78.77030 36916 ft 573 kts 98°
2026-05-07 00:48 37.28992 -78.67011 36891 ft 573 kts 97°
2026-05-07 00:49 37.28097 -78.57064 36901 ft 572 kts 97°
2026-05-07 00:49 37.27212 -78.47164 36902 ft 570 kts 97°
2026-05-07 00:50 37.26343 -78.37303 36901 ft 569 kts 97°
2026-05-07 00:50 37.25465 -78.27367 36911 ft 569 kts 97°
2026-05-07 00:51 37.25658 -78.17558 36916 ft 558 kts 69°
2026-05-07 00:51 37.27160 -78.13155 36914 ft 538 kts 49°
2026-05-07 00:51 37.29407 -78.09555 36921 ft 518 kts 35°
2026-05-07 00:52 37.34227 -78.02770 36905 ft 528 kts 41°
2026-05-07 00:52 37.38572 -77.95213 36897 ft 536 kts 45°
2026-05-07 00:53 37.42808 -77.87507 36904 ft 534 kts 45°
2026-05-07 00:53 37.47086 -77.79800 36920 ft 533 kts 45°
2026-05-07 00:54 37.51305 -77.72202 36919 ft 533 kts 45°
2026-05-07 00:54 37.53583 -77.68575 36917 ft 514 kts 31°
2026-05-07 00:54 37.56330 -77.65972 36966 ft 484 kts 16°
2026-05-07 00:55 37.62190 -77.61924 36938 ft 483 kts 15°
2026-05-07 00:55 37.67027 -77.58221 36905 ft 490 kts 18°
2026-05-07 00:56 37.72787 -77.53558 36917 ft 490 kts 19°
2026-05-07 00:56 37.78536 -77.48885 36918 ft 490 kts 19°
2026-05-07 00:57 37.84272 -77.44221 36913 ft 490 kts 19°
2026-05-07 00:57 37.87155 -77.41873 36780 ft 500 kts 19°
2026-05-07 00:57 37.90111 -77.39474 36524 ft 508 kts 19°
2026-05-07 00:58 37.93066 -77.37055 36254 ft 503 kts 19°
2026-05-07 00:58 37.96036 -77.34617 35999 ft 503 kts 20°
2026-05-07 00:58 37.98969 -77.32232 35789 ft 501 kts 19°
2026-05-07 00:58 38.01916 -77.29836 35537 ft 501 kts 20°
2026-05-07 00:59 38.07765 -77.25099 35053 ft 498 kts 20°
2026-05-07 00:59 38.10678 -77.22746 34789 ft 497 kts 20°
2026-05-07 00:59 38.13579 -77.20367 34556 ft 495 kts 20°
2026-05-07 01:00 38.16483 -77.17981 34314 ft 494 kts 20°
2026-05-07 01:00 38.19394 -77.15585 34122 ft 493 kts 21°
2026-05-07 01:00 38.22277 -77.13218 33889 ft 494 kts 21°
2026-05-07 01:00 38.25164 -77.10860 33627 ft 492 kts 21°
2026-05-07 01:01 38.28043 -77.08521 33366 ft 492 kts 21°
2026-05-07 01:01 38.30884 -77.06055 33113 ft 496 kts 25°
2026-05-07 01:01 38.33664 -77.03437 32851 ft 496 kts 26°
2026-05-07 01:01 38.36415 -77.00785 32597 ft 496 kts 27°
2026-05-07 01:02 38.39162 -76.98136 32343 ft 494 kts 27°
2026-05-07 01:02 38.41904 -76.95507 32131 ft 495 kts 27°
2026-05-07 01:02 38.44638 -76.92859 31873 ft 493 kts 27°
2026-05-07 01:02 38.47384 -76.90228 31631 ft 492 kts 27°
2026-05-07 01:03 38.50106 -76.87593 31391 ft 491 kts 27°
2026-05-07 01:03 38.52826 -76.84961 31114 ft 489 kts 27°
2026-05-07 01:03 38.55535 -76.82351 30869 ft 486 kts 27°
2026-05-07 01:03 38.58241 -76.79758 30636 ft 485 kts 27°
2026-05-07 01:04 38.60978 -76.77148 30431 ft 483 kts 27°
2026-05-07 01:04 38.63658 -76.74554 30192 ft 483 kts 28°
2026-05-07 01:04 38.66320 -76.71945 29956 ft 481 kts 27°
2026-05-07 01:04 38.68980 -76.69368 29684 ft 480 kts 27°
2026-05-07 01:05 38.71680 -76.66744 29403 ft 478 kts 28°
2026-05-07 01:05 38.74263 -76.64214 29142 ft 476 kts 27°
2026-05-07 01:05 38.76881 -76.61629 28881 ft 474 kts 28°
2026-05-07 01:05 38.79510 -76.59050 28608 ft 471 kts 27°
2026-05-07 01:06 38.82129 -76.56497 28374 ft 469 kts 26°
2026-05-07 01:06 38.84714 -76.53947 28115 ft 467 kts 27°
2026-05-07 01:06 38.87276 -76.51412 27854 ft 465 kts 27°
2026-05-07 01:06 38.89831 -76.48882 27590 ft 462 kts 27°
2026-05-07 01:07 38.92377 -76.46366 27330 ft 458 kts 27°
2026-05-07 01:07 38.94890 -76.43881 27102 ft 455 kts 27°
2026-05-07 01:07 38.97376 -76.41417 26958 ft 448 kts 27°
2026-05-07 01:07 38.99873 -76.38968 26917 ft 446 kts 26°
2026-05-07 01:08 39.02341 -76.36508 26938 ft 451 kts 28°
2026-05-07 01:08 39.04741 -76.33870 26909 ft 456 kts 31°
2026-05-07 01:08 39.07099 -76.31138 26843 ft 456 kts 32°
2026-05-07 01:08 39.09446 -76.28390 26373 ft 456 kts 32°
2026-05-07 01:09 39.11824 -76.25620 25745 ft 456 kts 32°
2026-05-07 01:09 39.14179 -76.22877 25142 ft 456 kts 32°
2026-05-07 01:09 39.16516 -76.20151 24641 ft 452 kts 32°
2026-05-07 01:09 39.18894 -76.17374 24169 ft 448 kts 33°
2026-05-07 01:10 39.21133 -76.14749 23720 ft 445 kts 33°
2026-05-07 01:10 39.23417 -76.12072 23261 ft 440 kts 33°
2026-05-07 01:10 39.25670 -76.09446 22743 ft 434 kts 33°
2026-05-07 01:10 39.27922 -76.06810 22210 ft 431 kts 34°
2026-05-07 01:11 39.30112 -76.04190 21710 ft 426 kts 34°
2026-05-07 01:11 39.32283 -76.01621 21208 ft 421 kts 34°
2026-05-07 01:11 39.34435 -75.99095 20714 ft 416 kts 34°
2026-05-07 01:11 39.36578 -75.96604 20213 ft 412 kts 34°
2026-05-07 01:12 39.38700 -75.94156 19725 ft 407 kts 34°
2026-05-07 01:12 39.40809 -75.91746 19255 ft 403 kts 34°
2026-05-07 01:12 39.42914 -75.89374 18770 ft 399 kts 34°
2026-05-07 01:12 39.45004 -75.87046 18322 ft 395 kts 34°
2026-05-07 01:13 39.47092 -75.84748 17859 ft 388 kts 34°
2026-05-07 01:13 39.49096 -75.82543 17795 ft 372 kts 34°
2026-05-07 01:13 39.51105 -75.80326 17337 ft 368 kts 34°
2026-05-07 01:13 39.53001 -75.78203 16847 ft 366 kts 36°
2026-05-07 01:14 39.54911 -75.76003 16364 ft 364 kts 36°
2026-05-07 01:14 39.56797 -75.73837 15905 ft 362 kts 36°
2026-05-07 01:14 39.58677 -75.71622 15442 ft 362 kts 41°
2026-05-07 01:14 39.60265 -75.69079 15011 ft 364 kts 52°
2026-05-07 01:15 39.61639 -75.66382 14580 ft 362 kts 53°
2026-05-07 01:15 39.63110 -75.63742 14161 ft 360 kts 49°
2026-05-07 01:15 39.64656 -75.61144 13708 ft 359 kts 49°
2026-05-07 01:15 39.66195 -75.58595 13254 ft 356 kts 49°
2026-05-07 01:16 39.67705 -75.56100 13014 ft 348 kts 49°
2026-05-07 01:16 39.69195 -75.53642 12901 ft 346 kts 47°
2026-05-07 01:16 39.70910 -75.51497 12895 ft 343 kts 34°
2026-05-07 01:16 39.72911 -75.49874 12891 ft 335 kts 17°
2026-05-07 01:17 39.75085 -75.48819 12876 ft 332 kts 12°
2026-05-07 01:17 39.77266 -75.47829 12878 ft 332 kts 13°
2026-05-07 01:17 39.79394 -75.46607 12877 ft 338 kts 20°
2026-05-07 01:17 39.81403 -75.44980 12870 ft 344 kts 34°
2026-05-07 01:18 39.83136 -75.42801 12874 ft 348 kts 43°
2026-05-07 01:18 39.84758 -75.40484 12711 ft 346 kts 44°
2026-05-07 01:18 39.86370 -75.38157 12265 ft 344 kts 44°
2026-05-07 01:18 39.87983 -75.35874 11813 ft 341 kts 44°
2026-05-07 01:19 39.89074 -75.34355 11513 ft 339 kts 43°
2026-05-07 01:19 39.90699 -75.32196 11116 ft 335 kts 41°
2026-05-07 01:19 39.92335 -75.30042 10976 ft 326 kts 41°
2026-05-07 01:19 39.93928 -75.27943 10909 ft 329 kts 41°
2026-05-07 01:20 39.95569 -75.25790 10893 ft 334 kts 41°
2026-05-07 01:20 39.97216 -75.23626 10895 ft 335 kts 41°
2026-05-07 01:20 39.98857 -75.21463 10885 ft 337 kts 41°
2026-05-07 01:20 40.00503 -75.19286 10878 ft 337 kts 41°
2026-05-07 01:21 40.02150 -75.17105 10879 ft 337 kts 41°
2026-05-07 01:21 40.03818 -75.14901 10875 ft 337 kts 41°
2026-05-07 01:21 40.05443 -75.12756 10876 ft 336 kts 41°
2026-05-07 01:21 40.07110 -75.10554 10871 ft 337 kts 41°
2026-05-07 01:22 40.08825 -75.08484 10885 ft 335 kts 37°
2026-05-07 01:22 40.10645 -75.06614 10889 ft 332 kts 30°
2026-05-07 01:22 40.12533 -75.04888 10880 ft 330 kts 29°
2026-05-07 01:22 40.14416 -75.03184 10883 ft 326 kts 29°
2026-05-07 01:23 40.16276 -75.01503 10892 ft 327 kts 28°
2026-05-07 01:23 40.18218 -74.99741 10859 ft 332 kts 29°
2026-05-07 01:23 40.20028 -74.97889 10855 ft 334 kts 34°
2026-05-07 01:23 40.21761 -74.95852 10855 ft 335 kts 38°
2026-05-07 01:24 40.23456 -74.93749 10802 ft 334 kts 37°
2026-05-07 01:24 40.25134 -74.91664 10419 ft 332 kts 37°
2026-05-07 01:24 40.26740 -74.89453 9893 ft 334 kts 44°
2026-05-07 01:24 40.28227 -74.87147 9450 ft 330 kts 45°
2026-05-07 01:25 40.29687 -74.84828 8998 ft 327 kts 46°
2026-05-07 01:25 40.31122 -74.82549 8525 ft 324 kts 46°
2026-05-07 01:25 40.32552 -74.80285 8077 ft 321 kts 46°
2026-05-07 01:25 40.33985 -74.78049 7620 ft 317 kts 45°
2026-05-07 01:26 40.35498 -74.75934 7085 ft 318 kts 42°
2026-05-07 01:26 40.37027 -74.73860 6663 ft 314 kts 41°
2026-05-07 01:26 40.38592 -74.71885 6207 ft 312 kts 38°
2026-05-07 01:26 40.40168 -74.69991 5986 ft 302 kts 38°
2026-05-07 01:27 40.41731 -74.68179 5889 ft 302 kts 33°
2026-05-07 01:27 40.43453 -74.66586 5880 ft 303 kts 28°
2026-05-07 01:27 40.45262 -74.65110 5854 ft 301 kts 21°
2026-05-07 01:27 40.47163 -74.63989 5862 ft 297 kts 14°
2026-05-07 01:28 40.49098 -74.63111 5867 ft 295 kts 13°
2026-05-07 01:28 40.50980 -74.62229 5854 ft 276 kts 13°
2026-05-07 01:28 40.52701 -74.61390 5865 ft 253 kts 13°
2026-05-07 01:28 40.54303 -74.60585 5854 ft 244 kts 13°
2026-05-07 01:29 40.55940 -74.59813 5857 ft 253 kts
2026-05-07 01:29 40.57644 -74.59364 5860 ft 246 kts
2026-05-07 01:29 40.59328 -74.58979 5860 ft 246 kts
2026-05-07 01:29 40.61044 -74.58590 5838 ft 249 kts
2026-05-07 01:30 40.62750 -74.58201 5849 ft 246 kts
2026-05-07 01:30 40.64433 -74.57820 5829 ft 246 kts
2026-05-07 01:30 40.66124 -74.57447 5833 ft 246 kts
2026-05-07 01:30 40.67803 -74.57064 5855 ft 243 kts
2026-05-07 01:31 40.69468 -74.56667 5848 ft 243 kts
2026-05-07 01:31 40.71109 -74.55945 5855 ft 255 kts 17°
2026-05-07 01:31 40.72717 -74.54954 5848 ft 254 kts 19°
2026-05-07 01:31 40.74345 -74.53956 5855 ft 256 kts 20°
2026-05-07 01:32 40.75967 -74.52999 5846 ft 254 kts 18°
2026-05-07 01:32 40.77588 -74.52028 5855 ft 257 kts 18°
2026-05-07 01:32 40.79221 -74.51041 5863 ft 257 kts 18°
2026-05-07 01:32 40.80865 -74.50050 5865 ft 259 kts 18°
2026-05-07 01:33 40.82485 -74.49057 5861 ft 256 kts 18°
2026-05-07 01:33 40.84096 -74.48063 5857 ft 257 kts 18°
2026-05-07 01:33 40.85612 -74.46762 5867 ft 261 kts 36°
2026-05-07 01:33 40.86930 -74.45171 5854 ft 253 kts 38°
2026-05-07 01:34 40.88219 -74.43596 5858 ft 254 kts 38°
2026-05-07 01:34 40.89538 -74.41984 5858 ft 254 kts 38°
2026-05-07 01:34 40.90833 -74.40412 5847 ft 253 kts 38°
2026-05-07 01:34 40.92130 -74.38840 5866 ft 253 kts 39°
2026-05-07 01:35 40.93328 -74.37144 5859 ft 256 kts 58°
2026-05-07 01:35 40.93928 -74.34939 5860 ft 255 kts 78°
2026-05-07 01:35 40.94356 -74.32668 5862 ft 257 kts 78°
2026-05-07 01:35 40.94778 -74.30329 5850 ft 257 kts 77°
2026-05-07 01:36 40.95178 -74.28038 5849 ft 257 kts 77°
2026-05-07 01:36 40.95584 -74.25725 5850 ft 258 kts 77°
2026-05-07 01:36 40.95998 -74.23421 5848 ft 257 kts 77°
2026-05-07 01:36 40.96409 -74.21118 5877 ft 259 kts 77°
2026-05-07 01:37 40.96814 -74.18791 5877 ft 260 kts 77°
2026-05-07 01:37 40.97124 -74.16423 5846 ft 260 kts 91°
2026-05-07 01:37 40.96868 -74.14134 5649 ft 248 kts 106°
2026-05-07 01:37 40.96488 -74.11916 5196 ft 246 kts 107°
2026-05-07 01:38 40.96107 -74.09727 4739 ft 243 kts 107°
2026-05-07 01:38 40.95838 -74.08270 4413 ft 240 kts 108°
2026-05-07 01:38 40.95081 -74.06395 4186 ft 217 kts 139°
2026-05-07 01:38 40.93884 -74.05431 3914 ft 194 kts 171°
2026-05-07 01:39 40.92562 -74.05061 3550 ft 189 kts 177°
2026-05-07 01:39 40.91281 -74.04773 3264 ft 184 kts 177°
2026-05-07 01:39 40.90080 -74.04504 3108 ft 169 kts 177°
2026-05-07 01:39 40.88988 -74.04542 2781 ft 146 kts 203°
2026-05-07 01:40 40.88055 -74.04899 2820 ft 143 kts 204°
2026-05-07 01:40 40.87010 -74.05309 2829 ft 170 kts 204°
2026-05-07 01:40 40.85880 -74.05827 2819 ft 167 kts 205°
2026-05-07 01:40 40.84874 -74.06376 2569 ft 151 kts 220°
2026-05-07 01:41 40.84012 -74.07051 2394 ft 139 kts 216°
2026-05-07 01:41 40.83123 -74.07636 2391 ft 154 kts 214°
2026-05-07 01:41 40.82092 -74.08299 2395 ft 170 kts 212°
2026-05-07 01:41 40.81062 -74.08948 2362 ft 157 kts 213°
2026-05-07 01:42 40.80059 -74.09593 2233 ft 165 kts 213°
2026-05-07 01:42 40.79014 -74.10258 2004 ft 164 kts 213°
2026-05-07 01:42 40.78038 -74.10878 1782 ft 154 kts 212°
2026-05-07 01:42 40.77052 -74.11504 1549 ft 153 kts 211°
2026-05-07 01:43 40.76100 -74.12118 1367 ft 152 kts 211°
2026-05-07 01:43 40.75125 -74.12740 1165 ft 151 kts 211°
2026-05-07 01:43 40.74182 -74.13337 1008 ft 153 kts 213°
2026-05-07 01:43 40.73235 -74.13942 777 ft 149 kts 212°
2026-05-07 01:44 40.72307 -74.14530 580 ft 149 kts 212°
2026-05-07 01:44 40.71367 -74.15124 387 ft 150 kts 213°
2026-05-07 01:44 40.70432 -74.15723 174 ft 148 kts 202°
2026-05-07 01:44 40.69500 -74.16316 45 ft 139 kts 206°
2026-05-07 01:45 40.68773 -74.16780 28 ft 78 kts 206°
2026-05-07 01:45 40.68498 -74.16953 29 ft 31 kts 205°
2026-05-07 01:45 40.68316 -74.17103 27 ft 32 kts 220°
2026-05-07 01:45 40.68211 -74.17273 29 ft 13 kts 234°
2026-05-07 01:46 40.68174 -74.17348 25 ft 0 kts 238°
2026-05-07 01:46 40.68176 -74.17361 25 ft 8 kts 285°
2026-05-07 01:47 40.68272 -74.17316 27 ft 22 kts 27°
2026-05-07 01:47 40.68415 -74.17236 30 ft 18 kts 357°
2026-05-07 01:47 40.68481 -74.17337 29 ft 15 kts 303°
2026-05-07 01:47 40.68523 -74.17454 30 ft 13 kts 299°
2026-05-07 01:48 40.68581 -74.17506 31 ft 13 kts 319°
2026-05-07 01:48 40.68669 -74.17505 31 ft 13 kts 30°
2026-05-07 01:48 40.68748 -74.17451 29 ft 14 kts 21°
2026-05-07 01:48 40.68847 -74.17394 27 ft 17 kts 26°
2026-05-07 01:49 40.68955 -74.17325 31 ft 19 kts 26°
2026-05-07 01:49 40.69037 -74.17319 29 ft 9 kts 294°
2026-05-07 01:49 40.69044 -74.17344 26 ft 1 kts 290°
2026-05-07 01:50 40.69044 -74.17346 26 ft 1 kts 290°
2026-05-07 01:50 40.69040 -74.17436 28 ft 21 kts 257°
2026-05-07 01:51 40.69029 -74.17520 28 ft 0 kts 259°
2026-05-07 01:51 40.69029 -74.17519 28 ft 1 kts 259°
2026-05-07 01:51 40.69029 -74.17518 28 ft 0 kts 259°
2026-05-07 01:51 40.69030 -74.17510 28 ft 3 kts 259°
2026-05-07 01:52 40.69033 -74.17492 29 ft 0 kts 259°